ONEWEB-0409

operational
NORAD ID: 50488 Int'l Des: 2021-132 Owner: ONEWEBN Country: UK Constellation: oneweb
LEOCIRCULARPOLARONEWEB_TYPE

Über ONEWEB-0409

Beschreibung wird geladen...

Live-Position

3D-Globus wird geladen...

Nächste Überflüge

Höhenverlauf

Altitude vs Time

uPlot chart will show altitude changes over time

Zweizeiliger Elementsatz

1 50488U 21132V 25250.87916627 .00000278 00000-0 74768-3 0 9996
2 50488 87.8780 77.2809 0001912 96.7285 263.4061 13.11419428178583
Epoch: 7. Sept. 2025 • Age: 8 hours

Aktueller Status

Höhe 1223.5 km
Geschwindigkeit 7.25 km/s
Subsatellitenpunkt 45.62°N, 169.08°W
Startdatum 27. Dez. 2021
Alter 3.6 years
Typ internet

Technische Details

Klassifizierung Payload
Masse 148.00 kg
Trockenmasse 140.00 kg
Gesamtmasse 148.00 kg
Länge 1.30 m
Durchmesser 1.00 m
Spannweite 5.00 m
Form Trapezoid+2 pan
Hersteller ONEWUS
Bus-Typ ARROW
Phasenstatus In Orbit
Besitzer/Staat ONEWEBN/UK

Große Konstellationen

Loading constellations...